This demonstration page uses our WeatherBlox Daily Observations layout. Learn more.

Left ArrowRight Arrow

39.92423, -83.80882

Hourly Observations for October 27, 2021

Temp ( °F °C ) Dew Point ( °F °C ) Humidity (%) Winds ( mph kmh ) Pressure ( in mb ) Visibility ( mi km ) Precip ( " mm )
12:56 am 00:56 Clear 36 2 N/A N/A WNW 3 6 30.04 1017 10 16 N/A
1:56 am 01:56 Clear 36 2 N/A N/A N 6 9 30.03 1017 10 16 N/A
2:56 am 02:56 Clear 34 1 N/A N/A N N/A 30.04 1017 10 16 N/A
3:56 am 03:56 Clear 34 1.1 34 1.1 100 100 N N/A 30.02 1017 10 16 N/A
4:56 am 04:56 Clear 32 undefined N/A N/A N N/A 30.03 1017 10 16 N/A
5:56 am 05:56 Clear 34 1 N/A N/A N N/A 30.04 1017 10 16 N/A
6:56 am 06:56 Clear 30 -1 N/A N/A N N/A 30.05 1018 10 16 N/A
7:56 am 07:56 Clear 30 -1 N/A N/A N N/A 30.06 1018 8 13 N/A
8:42 am 08:42 Mostly Cloudy 32 undefined N/A N/A N N/A 30.10 1019 8 13 N/A
8:56 am 08:56 Cloudy 34 1 N/A N/A N N/A 30.08 1019 10 16 N/A
9:56 am 09:56 Cloudy 40 4.4 38 3.3 93 93 N N/A 30.09 1019 10 16 N/A
10:56 am 10:56 Cloudy 43 6.1 41 5 93 93 N N/A 30.09 1019 10 16 N/A
11:56 am 11:56 Cloudy 45 7.2 43 6.1 93 93 W 3 6 30.10 1019 10 16 N/A
12:56 pm 12:56 Cloudy 47 8.3 43 6.1 86 86 W 3 6 30.07 1018 10 16 N/A
1:56 pm 13:56 Cloudy 48 8.9 44 6.7 86 86 VRB 3 6 30.04 1017 10 16 N/A
2:56 pm 14:56 Cloudy 48 8.9 44 6.7 86 86 ENE 5 7 30.02 1017 10 16 N/A
3:56 pm 15:56 Cloudy 49 9.4 45 7.2 86 86 E 7 11 29.98 1015 10 16 N/A
4:56 pm 16:56 Cloudy 49 9.4 46 7.8 90 90 E 9 15 29.97 1015 10 16 N/A
5:56 pm 17:56 Cloudy 49 9.4 46 7.8 90 90 ESE 8 13 29.97 1015 10 16 N/A
6:56 pm 18:56 Cloudy 48 8.9 46 7.8 93 93 ESE 10 17 29.96 1015 10 16 N/A
7:56 pm 19:56 Cloudy 48 8.9 46 7.8 93 93 ESE 10 17 29.98 1015 10 16 N/A
8:13 pm 20:13 Cloudy 48 9 46 8 94 94 E 10 17 29.98 1015 10 16 N/A
8:56 pm 20:56 Cloudy 48 8.9 47 8.3 96 96 ESE 5 7 29.99 1016 10 16 N/A
9:56 pm 21:56 Cloudy 48 8.9 47 8.3 96 96 ESE 9 15 29.96 1014 10 16 N/A
10:56 pm 22:56 Cloudy 47 8.3 47 8.3 100 100 E 17 28 29.91 1013 10 16 N/A
11:56 pm 23:56 Cloudy 48 8.9 48 8.9 100 100 E 16 26 29.89 1012 10 16 N/A

Powered by AerisWeather